Flag for U.S.A. Weather past 2 weeks in St. Croix Falls, Wisconsin, U.S.A.

Now
45 °F

Clear.


Feels Like: 40 °F
Forecast: 36 / 54 °F
Wind: 9 mph from Southeast

Location: L O Simenstad Municipal Airport

Current Time: Oct 21, 2014 at 11:09:50 PM

Latest Report: Oct 21, 2014 at 10:15 PM


Visibility: 10 mi

Pressure: 30.22 "Hg

Humidity: 74%

Dew point: 37 °F

Location of St. Croix FallsLocation

Historic Weather in St. Croix Falls — Graph

°F

St. Croix Falls temperature yesterday

Maximum temperature yesterday: 59 °F (at 3:35 PM)
Minimum temperature yesterday: 35 °F (at 11:55 PM)
Average temperature yesterday: 48 °F

Past Weeks' High & Low Weather Summary

 TemperatureHumidityPressure
High70 °F (Oct 16, 4:15 PM)100% (Oct 7, 3:15 AM)30.30 "Hg (Oct 7, 3:15 AM)
Low26 °F (Oct 11, 6:55 AM)34% (Oct 15, 3:55 PM)29.43 "Hg (Oct 6, 9:15 PM)
Average46 °F76%29.98 "Hg
* Reported Oct 6 9:15 PM — Oct 21 9:55 PM, St. Croix Falls, Weather by CustomWeather, © 2014

Note: Actual official high and low records may vary slightly from our data, if they occured in-between our weather recording intervals... More about our weather records

Advertising

St. Croix Falls weather history for previous 24 hours

 ConditionsComfort  
Time TempWeatherWind HumidityBarometerVisibility
9:55 PM
Oct 21
44 °FClear.8 mph76%30.22 "Hg10 mi
9:35 PM45 °FClear.7 mph74%30.22 "Hg10 mi
9:15 PM44 °FClear.8 mph78%30.21 "Hg10 mi
8:55 PM41 °FClear.8 mph83%30.21 "Hg10 mi
8:35 PM43 °FClear.6 mph76%30.21 "Hg10 mi
7:55 PM46 °FClear.6 mph71%30.20 "Hg10 mi
7:35 PM45 °FClear.6 mph75%30.19 "Hg10 mi
7:15 PM45 °FClear.6 mph75%30.19 "Hg10 mi
6:55 PM46 °FSunny.6 mph72%30.19 "Hg10 mi
6:15 PM49 °FSunny.7 mph68%30.19 "Hg10 mi
5:55 PM52 °FSunny.8 mph63%30.19 "Hg10 mi
5:35 PM53 °FSunny.8 mph59%30.19 "Hg10 mi
5:15 PM54 °FSunny.10 mph58%30.18 "Hg10 mi
4:55 PM55 °FSunny.9 mph57%30.19 "Hg10 mi
4:35 PM55 °FSunny.8 mph56%30.19 "Hg10 mi
4:15 PM56 °FSunny.8 mph55%30.19 "Hg10 mi
3:55 PM56 °FSunny.10 mph56%30.19 "Hg10 mi
3:35 PM56 °FSunny.8 mph54%30.20 "Hg10 mi
3:15 PM56 °FSunny.10 mph55%30.19 "Hg10 mi
2:55 PM56 °FSunny.7 mph55%30.20 "Hg10 mi
2:35 PM55 °FSunny.9 mph57%30.20 "Hg10 mi
2:15 PM55 °FSunny.8 mph57%30.21 "Hg10 mi
1:55 PM54 °FSunny.9 mph57%30.21 "Hg10 mi
1:35 PM54 °FSunny.9 mph58%30.21 "Hg10 mi
1:15 PM54 °FSunny.9 mph59%30.22 "Hg10 mi
12:55 PM53 °FSunny.9 mph59%30.23 "Hg10 mi
12:15 PM52 °FSunny.8 mph61%30.24 "Hg10 mi
11:55 AM51 °FSunny.7 mph64%30.24 "Hg10 mi
11:15 AM49 °FSunny.8 mph66%30.24 "Hg10 mi
10:55 AM48 °FSunny.10 mph69%30.24 "Hg10 mi
10:35 AM47 °FSunny.9 mph71%30.25 "Hg10 mi
10:15 AM46 °FSunny.12 mph77%30.25 "Hg10 mi
9:55 AM46 °FSunny.12 mph81%30.25 "Hg10 mi
9:35 AM44 °FSunny.7 mph88%30.25 "Hg10 mi
9:15 AM41 °FSunny.6 mph100%30.25 "Hg10 mi
8:55 AM37 °FSunny.No wind100%30.24 "Hg10 mi
8:35 AM32 °FSunny.No wind100%30.24 "Hg10 mi
8:15 AM31 °FClear.No wind100%30.23 "Hg10 mi
7:55 AM30 °FIce fog.No wind100%30.22 "Hg5 mi
7:35 AM30 °FIce fog.No wind100%30.21 "Hg0 mi
7:15 AM30 °FIce fog.No wind100%30.21 "Hg1 mi
6:55 AM30 °FIce fog.No wind100%30.21 "Hg1 mi
6:35 AM30 °FIce fog.No wind100%30.21 "Hg0 mi
6:15 AM30 °FLow clouds.No wind100%30.21 "Hg7 mi
5:55 AM30 °FIce fog.No wind100%30.20 "Hg5 mi
5:35 AM31 °FIce fog.No wind100%30.20 "Hg1 mi
5:15 AM31 °FIce fog.No wind100%30.19 "Hg0 mi
4:55 AM31 °FIce fog.No wind100%30.19 "Hg1 mi
4:35 AM31 °FIce fog.No wind100%30.18 "Hg1 mi
4:15 AM31 °FIce fog.No wind100%30.18 "Hg1 mi
3:55 AM32 °FPassing clouds.No wind100%30.18 "Hg10 mi
3:35 AM32 °FPassing clouds.No wind100%30.17 "Hg10 mi
3:15 AM32 °FClear.No wind100%30.17 "Hg10 mi
2:55 AM33 °FFog.No wind100%30.17 "Hg5 mi
2:15 AM33 °FPassing clouds.No wind100%30.15 "Hg10 mi
1:55 AM33 °FPassing clouds.No wind100%30.14 "Hg7 mi
1:15 AM33 °FClear.No wind100%30.14 "Hg10 mi
12:55 AM34 °FClear.No wind100%30.14 "Hg10 mi
12:35 AM35 °FClear.No wind100%30.13 "Hg10 mi
12:15 AM35 °FClear.No wind100%30.13 "Hg10 mi
11:55 PM
Oct 20
35 °FClear.No wind100%30.12 "Hg10 mi
11:35 PM36 °FClear.No wind100%30.12 "Hg10 mi
11:15 PM37 °FClear.No wind99%30.12 "Hg10 mi
Weather by CustomWeather, © 2014

See weather overviewHow to use our weather pages